Wind_Speed
5 6 5 5 5 6 8 9 10 11 12 13 14 15 15 15 15 15 15 16 16 16 18 18 18 18 19 20 21 21 21 19
2 4 5 7 8 10 12 13 14 15 16 16 17 18 19 19 20 19 21 24 24 24 24 24 23 22 22 21 22 22 23 23
8 9 11 10 13 14 14 16 16 18 19 21 21 23 23 20 25 24 25 27 27 26 27 27 26 27 27 26 26 24 25 25
9 10 11 14 15 17 19 20 21 21 21 23 25 26 25 27 25 27 27 28 29 28 29 30 29 28 27 26 29 29 28 28
9 12 15 17 18 20 21 23 24 24 25 27 28 27 27 28 29 30 30 31 35 36 36 34 35 34 33 32 30 30 31 31
11 15 16 21 23 24 25 26 27 28 28 29 30 30 30 32 34 37 39 39 40 40 39 39 38 35 34 36 35 35 35 35
16 19 22 25 25 28 30 31 32 31 31 32 34 34 34 36 38 39 39 41 41 38 38 37 35 34 33 33 34 35 36 37
22 34 17 26 28 30 33 34 35 36 36 36 35 36 37 40 40 40 40 38 37 36 36 36 36 36 35 34 34 35 37 37
20 20 34 31 32 33 36 36 39 41 42 41 41 42 43 43 43 41 40 40 41 41 40 39 39 40 41 42 44 43 41 41
32 32 32 33 37 38 38 41 44 46 47 48 47 45 46 46 47 46 45 46 48 50 50 49 49 50 50 51 50 49 50 50
33 38 39 41 40 40 43 47 48 50 52 54 53 52 51 51 50 50 49 50 52 54 56 56 58 58 57 57 58 59 59 59
37 40 40 42 46 45 49 51 52 53 54 57 55 56 54 55 55 54 54 55 57 59 60 61 62 63 64 64 64 65 66 66
39 41 45 46 49 51 52 54 56 58 59 59 57 59 57 58 58 59 60 63 64 66 66 65 66 68 68 68 67 67 67 68
42 44 47 48 51 53 54 56 58 58 58 59 60 61 60 60 61 65 66 67 69 70 70 70 70 71 72 73 73 72 71 70
45 47 47 49 53 56 55 55 56 57 59 61 63 62 63 65 69 70 70 72 73 73 75 75 76 74 75 76 76 76 76 73
46 49 51 51 52 53 53 53 57 60 61 62 63 65 68 71 72 73 73 75 75 77 76 75 76 76 75 74 74 76 77 77
48 50 53 53 51 52 54 57 58 60 62 64 66 68 72 74 76 77 77 79 80 81 81 80 79 78 77 78 77 78 79 79
48 49 49 53 55 52 53 58 60 61 64 67 70 74 75 76 79 80 80 79 77 79 82 85 83 82 81 82 82 82 82 83
45 44 48 51 54 58 63 63 65 69 73 76 76 77 78 80 82 84 85 84 81 86 90 89 89 88 85 84 85 87 88 90
47 48 51 54 57 60 63 67 72 75 77 80 80 80 80 82 83 84 87 92 91 96 93 89 86 85 86 86 87 88 87 82
Wind_Direction
98 72 50 31 18 1 350 341 334 327 322 322 322 323 320 312 301 298 300 300 299 302 307 305 301 294 289 287 288 287 287 285
54 7 346 341 338 334 329 327 325 324 322 319 318 314 313 309 305 300 297 297 298 300 297 294 291 287 285 283 282 281 285 284
350 350 340 330 323 323 317 318 318 318 315 313 314 310 308 306 304 304 302 301 302 301 297 295 294 290 287 281 277 277 278 278
336 327 319 316 318 315 312 315 313 311 309 309 309 306 307 308 305 307 308 306 303 300 300 299 297 292 288 286 285 283 278 276
322 318 321 319 318 316 317 313 309 306 306 309 307 308 310 309 309 306 304 304 303 299 297 295 296 296 293 291 286 281 281 279
317 317 321 323 322 320 315 311 311 308 309 311 311 310 308 309 309 306 304 302 303 301 298 298 297 295 294 294 292 290 286 282
321 322 326 321 319 318 315 312 310 308 309 311 311 308 305 306 304 301 299 297 297 297 295 295 294 293 292 292 291 290 289 288
328 303 343 318 312 310 309 312 307 306 308 309 309 305 303 304 303 299 296 295 294 295 295 295 295 293 291 286 283 284 284 282
318 312 315 310 307 306 306 308 310 309 308 308 309 309 306 305 302 302 302 301 300 300 299 297 295 292 291 291 291 289 284 282
302 306 304 307 307 306 305 311 313 311 309 308 309 310 305 309 308 307 306 305 305 305 303 300 298 296 295 293 291 289 289 288
307 309 313 313 309 311 307 310 312 311 310 309 311 312 311 310 308 306 303 301 301 301 300 298 296 294 293 291 291 290 289 288
304 313 309 309 307 305 307 309 310 309 307 306 310 309 310 307 304 303 299 296 296 296 297 295 294 294 292 291 291 290 289 287
304 304 305 304 304 306 306 308 308 308 308 307 309 306 304 301 299 296 294 293 295 296 295 294 293 293 291 289 288 288 286 285
300 300 299 299 300 301 304 305 305 306 304 303 302 300 298 297 298 296 297 297 298 298 297 295 295 295 294 291 289 286 284 282
294 295 295 297 301 302 303 302 302 301 301 301 301 302 301 302 300 299 299 299 298 298 297 296 295 293 292 289 286 285 281 278
295 297 299 298 299 301 301 300 301 301 302 302 303 302 303 302 301 299 298 297 296 295 294 294 293 291 288 286 285 283 280 275
301 299 299 300 300 300 300 301 302 303 305 306 305 304 300 299 298 297 297 297 296 297 293 295 295 290 287 283 282 281 280 280
298 299 300 300 300 300 303 304 305 305 304 302 301 300 299 297 296 296 296 296 298 296 293 293 294 291 288 284 281 277 274 276
297 297 298 301 304 306 307 308 307 307 307 306 305 303 301 299 299 296 294 296 295 298 296 293 292 289 286 281 278 276 274 273
301 304 304 304 307 306 308 309 308 307 307 307 306 304 301 298 296 297 295 294 293 297 297 295 290 286 282 278 276 277 278 277
Height
5832 5832 5831 5830 5829 5828 5827 5826 5824 5824 5823 5821 5819 5818 5817 5816 5814 5812 5811 5809 5807 5805 5803 5802 5800 5798 5797 5796 5794 5793 5791 5790
5831 5831 5830 5829 5829 5827 5826 5824 5823 5822 5820 5818 5817 5815 5814 5812 5810 5808 5807 5804 5802 5801 5799 5797 5796 5794 5793 5791 5790 5789 5787 5786
5830 5830 5829 5829 5826 5825 5824 5823 5821 5819 5818 5815 5813 5811 5809 5808 5804 5802 5800 5797 5796 5795 5792 5790 5790 5789 5787 5786 5784 5784 5782 5780
5828 5827 5826 5825 5824 5823 5822 5819 5817 5815 5814 5811 5808 5806 5803 5800 5800 5797 5794 5792 5790 5788 5786 5783 5782 5781 5780 5779 5777 5777 5775 5774
5827 5825 5824 5823 5821 5820 5817 5815 5812 5811 5808 5805 5803 5801 5798 5795 5792 5791 5789 5787 5783 5782 5779 5777 5775 5773 5771 5771 5771 5770 5768 5767
5824 5822 5821 5819 5817 5815 5813 5811 5808 5805 5803 5800 5798 5795 5793 5790 5787 5784 5781 5778 5776 5773 5770 5769 5767 5766 5764 5763 5762 5761 5761 5760
5822 5819 5817 5815 5812 5810 5808 5805 5802 5799 5796 5795 5792 5790 5788 5784 5781 5778 5774 5771 5768 5766 5763 5761 5759 5757 5756 5756 5754 5753 5752 5751
5816 5808 5810 5811 5809 5806 5803 5800 5796 5793 5792 5789 5786 5783 5780 5777 5773 5770 5767 5763 5761 5759 5756 5754 5751 5749 5747 5746 5746 5745 5744 5744
5817 5807 5803 5807 5804 5801 5797 5795 5791 5787 5784 5781 5778 5774 5771 5767 5763 5760 5756 5753 5750 5748 5746 5744 5742 5740 5739 5737 5735 5735 5736 5734
5811 5809 5807 5803 5797 5794 5790 5787 5783 5778 5774 5770 5769 5767 5761 5758 5753 5750 5746 5743 5739 5736 5734 5731 5729 5727 5725 5723 5722 5722 5720 5720
5806 5800 5797 5795 5791 5786 5783 5780 5774 5770 5765 5760 5757 5753 5750 5747 5743 5740 5736 5732 5729 5726 5723 5719 5716 5714 5712 5711 5709 5707 5706 5704
5798 5795 5792 5788 5783 5782 5774 5770 5767 5763 5759 5752 5750 5744 5741 5736 5731 5728 5724 5722 5718 5714 5711 5707 5703 5700 5697 5696 5694 5692 5689 5688
5793 5791 5786 5782 5776 5772 5768 5763 5757 5752 5747 5741 5739 5733 5731 5724 5719 5716 5711 5707 5703 5698 5695 5692 5688 5682 5680 5679 5678 5677 5674 5672
5786 5784 5779 5774 5769 5764 5761 5756 5750 5745 5739 5733 5728 5723 5718 5713 5708 5702 5698 5694 5689 5682 5677 5674 5671 5665 5660 5657 5657 5659 5655 5652
5780 5776 5772 5769 5762 5757 5753 5747 5742 5736 5731 5725 5717 5711 5704 5699 5692 5686 5681 5675 5672 5666 5659 5654 5652 5649 5641 5633 5631 5631 5629 5631
5772 5768 5763 5761 5755 5748 5743 5738 5732 5725 5719 5712 5705 5698 5692 5684 5677 5671 5666 5659 5654 5648 5642 5636 5629 5626 5622 5613 5606 5599 5598 5602
5764 5759 5752 5747 5744 5738 5733 5727 5720 5713 5706 5699 5692 5685 5677 5669 5660 5652 5645 5638 5632 5626 5620 5613 5606 5599 5595 5590 5586 5581 5572 5567
5755 5750 5743 5736 5730 5728 5723 5716 5710 5702 5695 5687 5679 5670 5661 5651 5642 5633 5624 5617 5612 5605 5596 5588 5582 5575 5569 5562 5557 5556 5552 5543
5747 5743 5736 5729 5722 5715 5707 5703 5695 5687 5678 5668 5659 5650 5641 5630 5621 5611 5601 5594 5587 5578 5570 5562 5554 5546 5541 5535 5528 5523 5519 5517
5735 5731 5724 5717 5711 5704 5696 5688 5679 5669 5659 5649 5639 5631 5620 5608 5599 5589 5580 5569 5561 5552 5542 5532 5523 5514 5507 5501 5498 5494 5489 5487